Home > Weather > Jackson > Past weeks

Flag for USA Past Weather in Jackson, Wyoming, USA — Yesterday and Last 2 Weeks

Now
79 °F

Sunny.


Feels Like: 78 °F
Forecast: 39 / 82 °F
Wind: 7 mph from South

Location: Jackson Hole

Current Time: Jun 27, 2016 at 2:32:37 PM

Latest Report: Jun 27, 2016 at 1:50 PM


Visibility: 10 mi

Pressure: 30.40 "Hg (24.47 "Hg at 1901m altitude)

Humidity: 23%

Dew Point: 37 °F

Location of JacksonLocation

Past Weather in Jackson — Graph

°F

Jackson Temperature Yesterday

Maximum temperature yesterday: 77 °F (at 4:45 PM)
Minimum temperature yesterday: 32 °F (at 4:55 AM)
Average temperature yesterday: 49 °F

High & Low Weather Summary for the Past Weeks

 TemperatureHumidityPressure
High84 °F (Jun 23, 2:47 PM)100% (Jun 13, 5:35 AM)30.47 "Hg (Jun 13, 5:35 AM)
Low32 °F (Jun 26, 4:55 AM)13% (Jun 21, 1:51 PM)29.78 "Hg (Jun 15, 9:15 PM)
Average53 °F58%30.19 "Hg
* Reported Jun 12 1:10 PM — Jun 27 12:51 PM, Jackson, Weather by CustomWeather, © 2016

Note: Actual official high and low records may vary slightly from our data, if they occured in-between our weather recording intervals... More about our weather records

Advertising

Jackson Weather History for the Previous 24 Hours

Scroll right to see more
 ConditionsComfort  
Time TempWeatherWind HumidityBarometerVisibility
12:51 PM
Mon, Jun 27
75 °FSunny.No wind19%30.41 "Hg10 mi
10:49 AM66 °FSunny.No wind28%30.44 "Hg10 mi
9:45 AM59 °FSunny.No wind36%30.46 "Hg10 mi
8:05 AM48 °FSunny.No wind54%30.47 "Hg10 mi
6:47 AM43 °FSunny.No wind66%30.46 "Hg10 mi
6:35 AM39 °FClear.No wind75%30.46 "Hg10 mi
6:15 AM37 °FClear.No wind81%30.45 "Hg10 mi
5:55 AM36 °FClear.5 mph81%30.44 "Hg10 mi
5:35 AM37 °FClear.6 mph75%30.44 "Hg10 mi
5:15 AM39 °FClear.No wind70%30.43 "Hg10 mi
4:55 AM39 °FClear.No wind70%30.43 "Hg10 mi
4:35 AM41 °FClear.3 mph66%30.42 "Hg10 mi
3:55 AM43 °FClear.5 mph61%30.41 "Hg10 mi
3:35 AM41 °FClear.6 mph70%30.41 "Hg10 mi
3:15 AM43 °FClear.5 mph66%30.41 "Hg10 mi
2:55 AM43 °FClear.3 mph66%30.41 "Hg10 mi
2:35 AM45 °FClear.No wind66%30.40 "Hg10 mi
2:15 AM43 °FClear.5 mph71%30.40 "Hg10 mi
1:55 AM45 °FClear.7 mph66%30.40 "Hg10 mi
1:35 AM45 °FClear.6 mph66%30.40 "Hg10 mi
1:15 AM45 °FClear.3 mph61%30.40 "Hg10 mi
12:55 AM45 °FClear.7 mph61%30.40 "Hg10 mi
12:35 AM48 °FClear.5 mph58%30.40 "Hg10 mi
12:15 AM46 °FClear.3 mph57%30.39 "Hg10 mi
11:55 PM
Sun, Jun 26
48 °FClear.5 mph58%30.39 "Hg10 mi
11:35 PM48 °FClear.8 mph58%30.39 "Hg10 mi
11:15 PM48 °FClear.9 mph58%30.39 "Hg10 mi
10:55 PM48 °FClear.3 mph50%30.39 "Hg10 mi
10:35 PM54 °FClear.6 mph38%30.39 "Hg10 mi
10:15 PM59 °FClear.5 mph31%30.38 "Hg10 mi
9:55 PM61 °FSunny.No wind31%30.38 "Hg10 mi
9:35 PM57 °FSunny.No wind41%30.37 "Hg10 mi
9:15 PM63 °FSunny.6 mph30%30.36 "Hg10 mi
8:55 PM64 °FSunny.6 mph28%30.35 "Hg10 mi
7:45 PM73 °FSunny.10 mph16%30.34 "Hg10 mi
6:55 PM75 °FSunny.8 mph18%30.33 "Hg10 mi
5:45 PM75 °FSunny.8 mph15%30.32 "Hg10 mi
4:45 PM77 °FSunny.12 mph17%30.33 "Hg10 mi
4:10 PM75 °FSunny.7 mph15%30.34 "Hg10 mi
2:45 PM72 °FSunny.5 mph17%30.35 "Hg10 mi
Weather by CustomWeather, © 2016

See weather overviewHow to use our weather pages